KE8URB Weather Reports


time (UTC)temp
F
wind
direction
speed
knots
gust
knots
rain 1hr
in
rain 24hr
in
rain mn
in
humidity
%
barometer
mb
20260508075130 43 207 0.0 0.9 0.00 0.00 0.00 85 1013.7
20260508074628 44 213 0.0 0.9 0.00 0.00 0.00 85 1013.8
20260508074124 44 209 0.9 0.9 0.00 0.00 0.00 84 1013.6
20260508073622 44 211 1.7 1.7 0.00 0.00 0.00 83 1013.6
20260508073120 44 216 0.0 0.0 0.00 0.00 0.00 84 1013.4
20260508072614 44 218 0.9 0.9 0.00 0.00 0.00 84 1013.6
20260508072112 44 247 0.0 0.0 0.00 0.00 0.00 83 1013.8
20260508071610 44 217 0.0 0.0 0.00 0.00 0.00 82 1013.5
20260508071108 44 227 0.9 0.9 0.00 0.00 0.00 81 1013.6
20260508070605 44 236 0.9 0.9 0.00 0.00 0.00 82 1013.7
20260508065600 44 245 0.0 0.9 0.00 0.00 0.00 80 1013.8
20260508065058 45 299 2.6 4.3 0.00 0.00 0.00 78 1013.9
20260508064556 45 259 3.5 4.3 0.00 0.00 0.00 77 1013.9
20260508064054 45 261 1.7 1.7 0.00 0.00 0.00 75 1013.7
20260508063551 45 282 1.7 1.7 0.00 0.00 0.00 76 1013.6
20260508063049 44 251 0.0 0.0 0.00 0.00 0.00 76 1013.7
20260508062546 44 243 0.0 0.0 0.00 0.00 0.00 76 1013.4
20260508062042 44 243 0.0 0.0 0.00 0.00 0.00 77 1013.6
20260508061540 44 243 0.0 0.0 0.00 0.00 0.00 77 1013.4
20260508061037 44 243 0.0 0.0 0.00 0.00 0.00 76 1013.7
20260508060534 44 243 0.0 0.0 0.00 0.00 0.00 75 1013.8
20260508060031 44 243 0.0 0.0 0.00 0.00 0.00 75 1013.6
20260508055526 44 243 0.0 0.0 0.00 0.00 0.00 75 1013.5
20260508055024 44 243 0.0 0.0 0.00 0.00 0.00 76 1013.7
20260508054520 44 243 0.0 0.0 0.00 0.00 0.00 75 1013.7
20260508054018 44 243 0.0 0.0 0.00 0.00 0.00 75 1014.0
20260508053514 44 243 0.0 0.0 0.00 0.00 0.00 74 1014.1
20260508053013 44 243 0.0 0.0 0.00 0.00 0.00 74 1014.0
20260508052509 44 243 0.0 0.0 0.00 0.00 0.00 75 1014.1
20260508052006 44 243 0.0 0.0 0.00 0.00 0.00 75 1014.1
20260508051502 44 243 0.0 0.0 0.00 0.00 0.00 73 1014.1
20260508050957 44 243 0.0 0.0 0.00 0.00 0.00 77 1013.8
20260508050454 44 243 0.0 0.0 0.00 0.00 0.00 77 1014.0
20260508045951 44 243 0.0 0.0 0.00 0.00 0.00 77 1014.1
20260508045448 44 243 0.0 0.0 0.00 0.00 0.00 79 1014.1
20260508044945 44 243 0.0 0.0 0.00 0.00 0.00 80 1014.2
20260508044442 44 243 0.0 0.0 0.00 0.00 0.00 80 1013.9
20260508043938 44 243 0.0 0.0 0.00 0.00 0.00 78 1014.5
20260508043436 43 243 0.0 0.0 0.00 0.00 0.00 79 1014.2
20260508042931 43 243 0.0 0.0 0.00 0.00 0.00 82 1014.2
20260508042430 43 243 0.0 0.0 0.00 0.00 0.00 84 1014.5
20260508041926 42 243 0.0 0.0 0.00 0.00 0.00 85 1014.4
20260508041423 42 243 0.0 0.0 0.00 0.00 0.00 85 1014.4
20260508040920 43 243 0.0 0.0 0.00 0.00 0.00 84 1014.2
20260508040417 43 243 0.0 0.0 0.00 0.00 0.00 82 1014.1
20260508035915 43 243 0.0 0.0 0.00 0.00 0.00 82 1013.9
20260508035411 43 242 0.0 0.0 0.00 0.00 0.00 83 1013.8
20260508034908 43 243 0.0 0.0 0.00 0.00 0.00 80 1013.8
20260508034406 43 242 0.0 0.0 0.00 0.00 0.00 79 1013.8
20260508033902 44 242 0.0 0.0 0.00 0.00 0.00 78 1013.8
20260508033400 44 242 0.0 0.0 0.00 0.00 0.00 76 1014.0
20260508032857 44 242 0.0 0.0 0.00 0.00 0.00 75 1013.9
20260508032355 45 243 0.0 0.0 0.00 0.00 0.00 73 1014.2
20260508031851 45 243 0.0 0.0 0.00 0.00 0.00 72 1014.1
20260508031348 45 243 0.0 0.0 0.00 0.00 0.00 71 1014.0
20260508030844 44 243 0.0 0.0 0.00 0.00 0.00 71 1013.9
20260508030341 44 243 0.0 0.0 0.00 0.00 0.00 71 1013.9
20260508025838 45 243 0.0 0.0 0.00 0.00 0.00 71 1013.7
20260508025335 45 243 0.0 0.0 0.00 0.00 0.00 71 1014.0
20260508024832 45 243 0.0 0.0 0.00 0.00 0.00 70 1014.0
20260508024328 45 243 0.0 0.0 0.00 0.00 0.00 70 1014.2
20260508023826 45 243 0.0 0.0 0.00 0.00 0.00 70 1014.0
20260508023322 45 243 0.0 0.0 0.00 0.00 0.00 69 1014.2
20260508022819 46 243 0.0 0.0 0.00 0.00 0.00 69 1013.8
20260508022315 45 243 0.0 0.0 0.00 0.00 0.00 69 1013.9
20260508021812 45 243 0.0 0.0 0.00 0.00 0.00 70 1014.1
20260508021308 45 243 0.0 0.0 0.00 0.00 0.00 70 1013.7
20260508020804 45 243 0.0 0.0 0.00 0.00 0.00 70 1013.9
20260508020302 46 243 0.0 0.0 0.00 0.00 0.00 69 1014.1
20260508015759 46 243 0.0 0.0 0.00 0.00 0.00 68 1013.9
20260508015256 46 243 0.0 0.0 0.00 0.00 0.00 67 1013.8
20260508014753 46 243 0.0 0.0 0.00 0.00 0.00 67 1013.9
20260508014250 46 243 0.0 0.0 0.00 0.00 0.00 69 1013.8
20260508013745 46 243 0.0 0.0 0.00 0.00 0.00 68 1013.9
20260508013242 47 243 0.0 0.0 0.00 0.00 0.00 68 1013.4
20260508012740 47 243 0.0 0.0 0.00 0.00 0.00 68 1013.8
20260508012236 47 243 0.0 0.0 0.00 0.00 0.00 66 1013.7
20260508011734 48 243 0.0 0.0 0.00 0.00 0.00 63 1013.5
20260508011232 48 243 0.0 0.0 0.00 0.00 0.00 63 1013.5
20260508010728 48 243 0.0 0.0 0.00 0.00 0.00 62 1013.5
20260508010227 49 295 0.0 0.0 0.00 0.00 0.00 64 1013.5
20260508005723 49 295 0.0 0.0 0.00 0.00 0.00 61 1013.4
20260508005220 49 295 0.0 0.0 0.00 0.00 0.00 62 1013.3
20260508004715 50 298 0.9 0.9 0.00 0.00 0.00 59 1013.3
20260508004212 50 303 0.0 0.0 0.00 0.00 0.00 59 1013.3
20260508003709 51 303 0.0 0.0 0.00 0.00 0.00 58 1013.2
20260508003206 52 296 0.9 0.9 0.00 0.00 0.00 54 1013.1
20260508002703 52 284 2.6 2.6 0.00 0.00 0.00 54 1013.2
20260508002200 52 240 0.9 0.9 0.00 0.00 0.00 56 1012.9
20260508001655 52 240 0.9 0.9 0.00 0.00 0.00 56 1013.2
20260508001152 52 257 0.9 0.9 0.00 0.00 0.00 56 1013.2
20260508000648 53 267 0.9 0.9 0.00 0.00 0.00 54 1013.0
20260508000145 54 256 0.9 1.7 0.00 0.00 0.00 52 1013.1
20260507235642 54 255 2.6 2.6 0.00 0.00 0.00 51 1013.0
20260507235139 54 260 3.5 4.3 0.00 0.00 0.00 50 1012.8
20260507234636 55 277 4.3 5.2 0.00 0.00 0.00 49 1012.7
20260507234132 55 284 1.7 2.6 0.00 0.00 0.00 50 1012.7
20260507233629 55 276 3.5 5.2 0.00 0.00 0.00 49 1012.8
20260507233128 55 259 2.6 2.6 0.00 0.00 0.00 49 1013.0
20260507232625 55 236 4.3 6.1 0.00 0.00 0.00 51 1013.0
20260507232121 55 300 7.0 8.7 0.00 0.00 0.00 49 1013.0
20260507231617 55 267 9.6 13.0 0.00 0.00 0.00 48 1012.8
20260507231115 55 278 3.5 5.2 0.00 0.00 0.00 49 1012.9
20260507230611 55 291 10.4 14.8 0.00 0.00 0.00 47 1013.0
20260507230109 55 269 7.8 9.6 0.00 0.00 0.00 49 1012.8
20260507225609 56 276 8.7 9.6 0.00 0.00 0.00 47 1012.8
20260507225106 56 261 5.2 7.0 0.00 0.00 0.00 48 1013.2
20260507224601 56 251 13.9 15.6 0.00 0.00 0.00 46 1012.9
20260507224058 56 266 11.3 14.8 0.00 0.00 0.00 47 1012.9
20260507223554 56 287 9.6 11.3 0.00 0.00 0.00 49 1012.9
20260507223051 56 266 6.1 7.8 0.00 0.00 0.00 48 1013.0
20260507222548 56 321 12.2 15.6 0.00 0.00 0.00 49 1012.9
20260507222044 56 291 14.8 17.4 0.00 0.00 0.00 48 1013.0
20260507221541 57 260 4.3 7.0 0.00 0.00 0.00 49 1012.9
20260507221038 57 280 7.0 8.7 0.00 0.00 0.00 47 1013.0
20260507220535 57 282 4.3 6.1 0.00 0.00 0.00 47 1012.9
20260507220033 56 340 5.2 7.8 0.00 0.00 0.00 49 1012.9
20260507215529 55 272 7.0 8.7 0.00 0.00 0.00 51 1012.6
20260507215027 55 290 7.8 11.3 0.00 0.00 0.00 51 1012.7
20260507214524 56 277 12.2 14.8 0.00 0.00 0.00 50 1012.5
20260507214020 56 278 9.6 13.0 0.00 0.00 0.00 51 1012.6
20260507213516 57 276 6.1 7.0 0.00 0.00 0.00 51 1012.4
20260507213013 55 271 10.4 13.0 0.00 0.00 0.00 52 1012.4
20260507212508 55 274 3.5 5.2 0.00 0.00 0.00 53 1012.1
20260507212006 56 251 8.7 14.8 0.00 0.00 0.00 53 1012.1
20260507211502 58 315 2.6 2.6 0.00 0.00 0.00 52 1011.9
20260507210959 56 256 7.0 7.8 0.00 0.00 0.00 53 1011.9
20260507210456 57 268 2.6 5.2 0.00 0.00 0.00 52 1011.7
20260507205952 56 259 6.1 7.8 0.00 0.00 0.00 53 1011.9
20260507205450 58 338 7.0 9.6 0.00 0.00 0.00 50 1011.8
20260507204946 58 303 7.8 8.7 0.00 0.00 0.00 52 1011.7
20260507204442 57 307 7.8 11.3 0.00 0.00 0.00 49 1012.1
20260507203940 57 281 9.6 13.9 0.00 0.00 0.00 47 1011.8
20260507203438 56 290 7.8 9.6 0.00 0.00 0.00 50 1011.8
20260507202934 57 307 5.2 6.1 0.00 0.00 0.00 47 1011.5
20260507202431 56 271 4.3 5.2 0.00 0.00 0.00 50 1011.7
20260507201926 58 210 3.5 4.3 0.00 0.00 0.00 51 1011.6
20260507201421 57 262 4.3 5.2 0.00 0.00 0.00 52 1011.6
20260507200919 59 275 6.1 7.8 0.00 0.00 0.00 53 1011.8
20260507200414 58 262 4.3 6.1 0.00 0.00 0.00 51 1011.7
20260507195910 58 259 7.8 11.3 0.00 0.00 0.00 52 1011.7
20260507195408 58 249 6.1 7.0 0.00 0.00 0.00 49 1011.8
20260507194905 58 266 5.2 7.0 0.00 0.00 0.00 50 1012.0
20260507194401 58 269 5.2 6.1 0.00 0.00 0.00 51 1011.9
20260507193857 58 276 7.8 9.6 0.00 0.00 0.00 49 1012.1
20260507193355 57 253 6.1 8.7 0.00 0.00 0.00 53 1011.9
20260507192851 56 299 3.5 5.2 0.00 0.00 0.00 52 1012.2
20260507192347 57 269 3.5 4.3 0.00 0.00 0.00 53 1012.2
20260507191844 57 272 6.1 7.0 0.00 0.00 0.00 51 1012.1
20260507191340 57 259 4.3 6.1 0.00 0.00 0.00 51 1012.0
20260507190837 56 248 2.6 4.3 0.00 0.00 0.00 53 1012.3
20260507190336 56 301 10.4 13.9 0.00 0.00 0.00 52 1012.2
20260507185834 56 282 4.3 5.2 0.00 0.00 0.00 51 1012.1
20260507185331 56 288 6.1 11.3 0.00 0.00 0.00 50 1012.1
20260507184828 56 280 3.5 4.3 0.00 0.00 0.00 53 1012.0
20260507184326 56 299 12.2 13.9 0.00 0.00 0.00 50 1012.2
20260507183822 55 269 7.0 8.7 0.00 0.00 0.00 51 1012.3
20260507183319 56 250 5.2 6.1 0.00 0.00 0.00 51 1012.2
20260507182817 57 265 4.3 7.0 0.00 0.00 0.00 51 1011.9
20260507182312 58 285 4.3 5.2 0.00 0.00 0.00 48 1012.0
20260507181809 55 274 2.6 4.3 0.00 0.00 0.00 52 1012.1
20260507181305 56 268 4.3 6.1 0.00 0.00 0.00 51 1012.3
20260507180802 56 276 4.3 5.2 0.00 0.00 0.00 56 1012.2
20260507180259 58 244 4.3 5.2 0.00 0.00 0.00 51 1012.3
20260507175754 57 253 9.6 13.9 0.00 0.00 0.00 52 1012.3
20260507175251 57 284 4.3 7.0 0.00 0.00 0.00 51 1012.3
20260507174748 55 260 5.2 5.2 0.00 0.00 0.00 53 1012.4
20260507174247 56 188 2.6 2.6 0.00 0.00 0.00 53 1012.6
20260507173744 57 236 6.1 7.8 0.00 0.00 0.00 54 1012.3
20260507173241 55 234 1.7 1.7 0.00 0.00 0.00 54 1012.7
20260507172737 55 288 3.5 5.2 0.00 0.00 0.00 51 1012.8
20260507172234 56 274 6.1 7.8 0.00 0.00 0.00 54 1012.7
20260507171734 55 185 4.3 6.1 0.00 0.00 0.00 54 1012.8
20260507171232 56 189 5.2 6.1 0.00 0.00 0.00 54 1012.8
20260507170729 56 274 3.5 4.3 0.00 0.00 0.00 52 1012.8
20260507170226 56 222 2.6 4.3 0.00 0.00 0.00 54 1012.7
20260507165721 56 168 2.6 2.6 0.00 0.00 0.00 54 1013.0
20260507165218 56 212 4.3 6.1 0.00 0.00 0.00 56 1012.9
20260507164714 55 275 9.6 11.3 0.00 0.00 0.00 51 1013.0
20260507164211 56 243 5.2 9.6 0.00 0.00 0.00 51 1012.9
20260507163708 55 195 6.1 7.0 0.00 0.00 0.00 53 1012.9
20260507163206 55 265 4.3 6.1 0.00 0.00 0.00 55 1013.1
20260507162702 54 176 2.6 4.3 0.00 0.00 0.00 54 1013.1
20260507162158 55 301 4.3 7.8 0.00 0.00 0.00 57 1012.9
20260507161654 54 257 8.7 11.3 0.00 0.00 0.00 50 1013.0
20260507161151 55 257 5.2 8.7 0.00 0.00 0.00 56 1012.8
20260507160647 54 260 6.1 7.0 0.00 0.00 0.00 50 1012.8
20260507160144 54 282 2.6 4.3 0.00 0.00 0.00 55 1012.8
20260507155639 54 296 5.2 6.1 0.00 0.00 0.00 53 1012.9
20260507155136 54 257 5.2 6.1 0.00 0.00 0.00 56 1012.9
20260507154633 53 290 6.1 8.7 0.00 0.00 0.00 54 1012.9
20260507154131 54 276 5.2 7.0 0.00 0.00 0.00 57 1012.9
20260507153627 54 270 7.0 12.2 0.00 0.00 0.00 57 1012.9
20260507153123 54 245 10.4 13.0 0.00 0.00 0.00 55 1013.0
20260507152620 53 169 5.2 7.8 0.00 0.00 0.00 58 1013.0
20260507152116 53 219 5.2 7.8 0.00 0.00 0.00 57 1013.0
20260507151612 53 189 4.3 6.1 0.00 0.00 0.00 57 1013.1
20260507151109 54 194 5.2 6.1 0.00 0.00 0.00 60 1012.9
20260507150606 53 234 6.1 11.3 0.00 0.00 0.00 57 1013.1
20260507145557 53 182 1.7 2.6 0.00 0.00 0.00 60 1013.3
20260507145056 52 207 4.3 5.2 0.00 0.00 0.00 63 1013.1
20260507144552 52 291 4.3 7.8 0.00 0.00 0.00 59 1013.2
20260507144050 52 264 3.5 5.2 0.00 0.00 0.00 60 1013.5
20260507143546 52 281 9.6 12.2 0.00 0.00 0.00 61 1013.3
20260507143045 52 253 5.2 7.8 0.00 0.00 0.00 58 1013.4
20260507142544 52 273 7.0 8.7 0.00 0.00 0.00 62 1013.3
20260507142042 52 250 7.8 11.3 0.00 0.00 0.00 63 1013.5
20260507141538 52 286 7.0 7.8 0.00 0.00 0.00 63 1013.3
20260507141035 52 289 7.8 11.3 0.00 0.00 0.00 64 1013.3
20260507140531 52 291 4.3 6.1 0.00 0.00 0.00 69 1013.6
20260507140029 52 258 2.6 4.3 0.00 0.00 0.00 71 1013.8
20260507135526 51 189 7.0 12.2 0.00 0.00 0.00 73 1013.6
20260507135023 50 181 3.5 6.1 0.00 0.00 0.00 73 1013.8
20260507134519 50 263 4.3 4.3 0.00 0.00 0.00 74 1013.9
20260507134015 50 244 2.6 5.2 0.00 0.00 0.00 75 1013.8
20260507133511 49 226 3.5 5.2 0.00 0.00 0.00 76 1013.8
20260507133010 49 281 3.5 6.1 0.00 0.00 0.00 78 1013.9
20260507132506 49 292 5.2 7.0 0.00 0.00 0.00 78 1013.9
20260507132002 48 267 3.5 4.3 0.00 0.00 0.00 79 1013.8
20260507131459 48 188 2.6 2.6 0.00 0.00 0.00 80 1013.9
20260507130956 48 173 1.7 1.7 0.00 0.00 0.00 81 1014.2
20260507130453 47 253 2.6 4.3 0.00 0.00 0.00 82 1014.1
20260507125952 47 274 2.6 2.6 0.00 0.00 0.00 83 1013.9
20260507125450 46 279 1.7 1.7 0.00 0.00 0.00 84 1013.8
20260507124947 46 210 1.7 1.7 0.00 0.00 0.00 85 1013.8
20260507124443 46 264 2.6 2.6 0.00 0.00 0.00 85 1013.7
20260507123941 46 245 1.7 1.7 0.00 0.00 0.00 86 1013.8
20260507123438 46 276 3.5 4.3 0.00 0.00 0.00 85 1013.7
20260507122935 45 174 0.9 0.9 0.00 0.00 0.00 86 1013.9
20260507122430 45 246 1.7 1.7 0.00 0.00 0.00 87 1013.8
20260507121926 45 160 0.0 0.9 0.00 0.00 0.00 88 1013.6
20260507121422 44 249 2.6 2.6 0.00 0.00 0.00 89 1013.7
20260507120919 43 266 4.3 5.2 0.00 0.00 0.00 91 1013.8
20260507120415 43 241 0.9 1.7 0.00 0.00 0.00 93 1013.9
20260507115911 42 201 0.9 0.9 0.00 0.00 0.00 94 1013.7
20260507115407 42 178 0.0 0.0 0.00 0.00 0.00 95 1013.6
20260507114903 41 179 0.0 0.0 0.00 0.00 0.00 95 1013.6
20260507114400 41 167 0.0 0.0 0.00 0.00 0.00 96 1013.7
20260507113857 40 162 0.0 0.0 0.00 0.00 0.00 97 1013.6
20260507113354 39 154 0.0 0.0 0.00 0.00 0.00 98 1013.6
20260507112852 39 151 0.0 0.0 0.00 0.00 0.00 98 1013.6
20260507112349 39 152 0.0 0.0 0.00 0.00 0.00 98 1013.5
20260507111847 38 148 0.0 0.0 0.00 0.00 0.00 98 1013.6
20260507111343 38 148 0.0 0.0 0.00 0.00 0.00 98 1013.5
20260507110839 38 139 0.0 0.0 0.00 0.00 0.00 99 1013.6
20260507110335 38 139 0.0 0.0 0.00 0.00 0.00 99 1013.5
20260507105833 38 139 0.0 0.0 0.00 0.00 0.00 99 1013.3
20260507105329 37 139 0.0 0.0 0.00 0.00 0.00 99 1013.6
20260507104826 37 139 0.0 0.0 0.00 0.00 0.00 99 1013.5
20260507104322 37 139 0.0 0.0 0.00 0.00 0.00 99 1013.6
20260507103818 37 139 0.0 0.0 0.00 0.00 0.00 99 1013.4
20260507103315 37 139 0.0 0.0 0.00 0.00 0.00 99 1013.4
20260507102812 37 139 0.0 0.0 0.00 0.00 0.00 99 1013.4
20260507102309 37 139 0.0 0.0 0.00 0.00 0.00 99 1013.4
20260507101805 37 139 0.0 0.0 0.00 0.00 0.00 99 1013.2
20260507101305 37 139 0.0 0.0 0.00 0.00 0.00 99 1013.4
20260507100802 37 139 0.0 0.0 0.00 0.00 0.00 99 1013.3
20260507100300 37 139 0.0 0.0 0.00 0.00 0.00 99 1013.3
20260507095758 37 138 0.0 0.0 0.00 0.00 0.00 99 1013.3
20260507095254 37 138 0.0 0.0 0.00 0.00 0.00 99 1013.2
20260507094751 37 138 0.0 0.0 0.00 0.00 0.00 99 1013.3
20260507094248 37 138 0.0 0.0 0.00 0.00 0.00 99 1013.3
20260507093745 37 138 0.0 0.0 0.00 0.00 0.00 99 1013.2
20260507093243 37 138 0.0 0.0 0.00 0.00 0.00 99 1013.3
20260507092741 37 138 0.0 0.0 0.00 0.00 0.00 99 1013.3
20260507092237 37 138 0.0 0.0 0.00 0.00 0.00 99 1013.3
20260507091734 37 138 0.0 0.0 0.00 0.00 0.00 99 1013.3
20260507091230 38 138 0.0 0.0 0.00 0.00 0.00 99 1013.3
20260507090725 38 138 0.0 0.0 0.00 0.00 0.00 99 1013.3
20260507090222 38 138 0.0 0.0 0.00 0.00 0.00 99 1013.4
20260507085720 38 138 0.0 0.0 0.00 0.00 0.00 99 1013.2
20260507085217 38 138 0.0 0.0 0.00 0.00 0.00 99 1013.3
20260507084713 38 138 0.0 0.0 0.00 0.00 0.00 99 1013.3
20260507084210 38 138 0.0 0.0 0.00 0.00 0.00 99 1013.5
20260507083707 38 138 0.0 0.0 0.00 0.00 0.00 99 1013.3
20260507083204 38 138 0.0 0.0 0.00 0.00 0.00 99 1013.6
20260507082700 38 138 0.0 0.0 0.00 0.00 0.00 99 1013.4
20260507082156 38 138 0.0 0.0 0.00 0.00 0.00 99 1013.4
20260507081653 38 138 0.0 0.0 0.00 0.00 0.00 99 1013.5
20260507081149 38 138 0.0 0.0 0.00 0.00 0.00 99 1013.5
20260507080646 38 138 0.0 0.0 0.00 0.00 0.00 98 1013.6
20260507080142 38 138 0.0 0.0 0.00 0.00 0.00 98 1013.5
20260507075637 38 70 0.0 0.0 0.00 0.00 0.00 98 1013.6